Weather History for Holland, MI

Change the Weather History Date:

Wednesday, March 14, 2012

  Actual Average Record
Temperature  
Mean Temperature 61 °F 36 °F  
Max Temperature 80 °F 44 °F 80 °F (2012)
Min Temperature 41 °F 28 °F 9 °F (2005)
Degree Days  
Heating Degree Days 4 29  
Month to date heating degree days 436  
Since 1 July heating degree days 4936  
Cooling Degree Days 0 0  
Month to date cooling degree days 0  
Year to date cooling degree days 0  
Growing Degree Days 12 (Base 50)    
Moisture  
Dew Point 45 °F    
Average Humidity 51    
Maximum Humidity 66    
Minimum Humidity 36    
Precipitation  
Precipitation 0.00 in 0.08 in 0.68 in (1973)
Month to date precipitation 1.32 1.10  
Year to date precipitation 4.99  
Sea Level Pressure  
Sea Level Pressure 30.01 in    
Wind  
Wind Speed 8 mph (South)    
Max Wind Speed 25 mph    
Max Gust Speed 31 mph    
Visibility 10 miles    
Events      
T = Trace of Precipitation, MM = Missing Value Source: NWS Daily Summary

Daily Weather History Graph

Daily Weather History Graph

Search for Another Location

Airport:

Trip Planner

Search our weather history database for the weather conditions in past years. The results will help you decide how hot, cold, wet, or windy it might be!

Date:

Astronomy

Mar. 14, 2012 Rise Set
Actual Time 7:57 AM EDT 7:50 PM EDT
Civil Twilight 7:29 AM EDT 8:18 PM EDT
Nautical Twilight 6:56 AM EDT 8:51 PM EDT
Astronomical Twilight 6:23 AM EDT 9:24 PM EDT
Moon 2:33 AM EDT (3/14) 11:58 AM EDT (3/14)
Length of Visible Light 12h 49m
Length of Day
11h 52m
Waning Gibbous, 54% of the Moon is Illuminated
Mar 14
Waning Gibbous
Mar 14
Last Quarter
Mar 22
New
Mar 30
First Quarter
Apr 6
Full

Hourly Weather History & Observations

Time (EDT) Temp. Windchill Dew Point Humidity Pressure Visibility Wind Dir Wind Speed Gust Speed Precip Events Conditions
12:53 AM 45.0 °F 43.5 °F 32.0 °F 60% 30.11 in 10.0 mi SSE 3.5 mph - N/A   Clear
1:53 AM 45.0 °F 43.5 °F 30.9 °F 58% 30.10 in 10.0 mi SE 3.5 mph - N/A   Clear
2:53 AM 44.1 °F 42.5 °F 30.0 °F 58% 30.09 in 10.0 mi SE 3.5 mph - N/A   Clear
3:53 AM 45.0 °F 42.6 °F 28.0 °F 52% 30.01 in 10.0 mi SE 4.6 mph - N/A   Clear
5:53 AM 45.0 °F 41.8 °F 28.0 °F 52% 30.00 in 10.0 mi SE 5.8 mph - N/A   Clear
6:53 AM 45.0 °F 40.6 °F 28.9 °F 53% 30.06 in 10.0 mi SSE 8.1 mph - N/A   Clear
7:53 AM 45.0 °F 42.6 °F 30.0 °F 56% 30.06 in 10.0 mi SSE 4.6 mph - N/A   Clear
8:53 AM 48.0 °F - 37.0 °F 66% 30.07 in 10.0 mi SE 4.6 mph - N/A   Clear
9:53 AM 57.0 °F - 45.0 °F 64% 29.99 in 10.0 mi South 9.2 mph - N/A   Clear
10:53 AM 64.9 °F - 51.1 °F 61% 30.04 in 10.0 mi South 10.4 mph - N/A   Clear
11:53 AM 70.0 °F - 55.9 °F 61% 30.03 in 10.0 mi SW 16.1 mph 26.5 mph N/A   Clear
12:53 PM 71.1 °F - 55.9 °F 59% 30.03 in 10.0 mi SW 17.3 mph - N/A   Clear
1:53 PM 73.9 °F - 55.9 °F 53% 30.01 in 10.0 mi SW 12.7 mph - N/A   Clear
2:53 PM 78.1 °F - 55.9 °F 46% 29.98 in 10.0 mi SSW 17.3 mph 24.2 mph N/A   Clear
3:53 PM 80.1 °F - 54.0 °F 40% 29.96 in 10.0 mi SSW 17.3 mph 27.6 mph N/A   Clear
4:53 PM 80.1 °F - 52.0 °F 38% 29.94 in 10.0 mi SW 20.7 mph 25.3 mph N/A   Clear
5:53 PM 79.0 °F - 52.0 °F 39% 29.94 in 10.0 mi SSW 16.1 mph 25.3 mph N/A   Clear
6:53 PM 75.0 °F - 51.1 °F 43% 29.94 in 10.0 mi SSW 13.8 mph - N/A   Clear
7:53 PM 73.0 °F - 52.0 °F 48% 29.94 in 10.0 mi SSW 10.4 mph - N/A   Clear
8:53 PM 71.1 °F - 52.0 °F 51% 29.95 in 10.0 mi SSW 8.1 mph - N/A   Clear
9:53 PM 66.9 °F - 52.0 °F 59% 29.96 in 10.0 mi South 6.9 mph - N/A   Scattered Clouds
10:53 PM 68.0 °F - 54.0 °F 61% 29.96 in 10.0 mi South 8.1 mph - N/A   Partly Cloudy
11:53 PM 69.1 °F - 55.9 °F 63% 29.97 in 10.0 mi South 10.4 mph 20.7 mph N/A   Mostly Cloudy